Погода в Заборовке

Россия / Самарская область     53°13′46″N   48°14′04″E
темп.,
°C
ветер,
м/с
пор.,
м/с
влажн.,
%
обл.,
%
осадки,
мм/ч
давл.,
гПа
погр.,
м
7 марта, вс
вс701:00−14зсз118778 0.0 101321
04:00−14з119154 0.0 101320
07:00−13з229673 0.1 101220
10:00−10з239386 0.2 1013189
13:00−6зюз468697 0.0 1013609
16:00−6юз578074 0.1 10101044
19:00−8ююз61390100 0.0 1008673
22:00−6ююз81692100 0.4 1005934
8 марта, пн
пн801:00−5юз101692100 0.9 10011072
04:00−5юз91789100 1.3 999858
07:00−3юз81689100 0.3 999827
10:00−3з6128799 0.8 10011141
13:00−2зюз7117313 0.1 10031368
16:00−2юз6107839 0.1 10021097
19:00−4юз41091100 0.0 1001420
22:00−6з5119067 0.0 1003343
9 марта, вт
вт901:00−10з512888 0.0 1006295
04:00−14зсз339316 0.0 100833
07:00−15з229393 0.0 101020
10:00−10сз128983 0.0 1011124
13:00−6в118327 0.0 1010426
16:00−6всв228463 0.1 1010531
19:00−10ссв239298 0.1 101023
22:00−12ссз369499 0.1 1011103
10 марта, ср
ср1001:00−13ссз4893100 0.0 1012258
04:00−15сз4109399 0.0 1013329
07:00−18сз4129391 0.0 1014348
10:00−17ссз7129091 0.0 1016434
13:00−16ссз7108856 0.0 1018556
16:00−16ссз7108672 0.0 1019640
19:00−21сз5129197 0.0 1021367
22:00−24сз499591 0.0 1023195
11 марта, чт
чт1101:00−25сз489520 0.0 1024137
04:00−27сз449511 0.0 102680
07:00−27сз34953 0.0 102761
10:00−21сз48901 0.0 1028282
13:00−15сз58820 0.0 1028530
16:00−12сз588413 0.0 1028590
19:00−15сз379098 0.0 1028145
22:00−19сз349349 0.0 103060